EW9766 Weather Reports


time (UTC)temp
F
wind
direction
speed
knots
gust
knots
rain 1hr
in
rain 24hr
in
rain mn
in
humidity
%
barometer
mb
20260831050030 52 164 4.3 7.0 0.00 0.00 0.00 75 1018.1
20260831044534 52 151 4.3 6.1 0.00 0.00 0.00 76 1018.2
20260831043030 52 147 3.5 7.0 0.00 0.00 0.00 76 1018.2
20260831041533 51 157 4.3 6.1 0.00 0.00 0.00 77 1018.3
20260831040034 51 154 3.5 5.2 0.00 0.00 0.00 77 1018.1
20260831034533 51 150 3.5 5.2 0.00 0.00 0.00 76 1018.1
20260831033034 52 136 2.6 3.5 0.00 0.00 0.00 75 1018.0
20260831031536 53 135 0.9 2.6 0.00 0.00 0.00 73 1017.9
20260831030034 54 94 0.9 2.6 0.00 0.00 0.00 71 1017.9
20260831024535 56 80 0.9 2.6 0.00 0.00 0.00 68 1017.9
20260831023031 58 20 0.0 2.6 0.00 0.00 0.00 64 1017.8
20260831021536 61 360 0.0 1.7 0.00 0.00 0.00 59 1017.9
20260831014532 64 351 2.6 6.1 0.00 0.00 0.00 53 1017.8
20260831013044 65 344 3.5 7.0 0.00 0.00 0.00 51 1018.0
20260831011604 66 330 4.3 9.6 0.00 0.00 0.00 49 1018.0
20260831010035 67 326 4.3 9.6 0.00 0.00 0.00 49 1018.0
20260831004536 67 324 4.3 7.8 0.00 0.00 0.00 47 1018.0
20260831003029 68 336 5.2 12.2 0.00 0.00 0.00 46 1017.9
20260831000034 69 343 6.1 10.4 0.00 0.00 0.00 46 1018.0
20260830233030 70 356 7.0 9.6 0.00 0.00 0.00 44 1018.1
20260830231535 70 360 6.1 12.2 0.00 0.00 0.00 44 1018.1
20260830224534 71 1 7.0 11.3 0.00 0.00 0.00 46 1018.3
20260830223043 71 8 6.1 10.4 0.00 0.00 0.00 46 1018.6
20260830221531 71 8 7.0 10.4 0.00 0.00 0.00 45 1018.8
20260830214533 70 4 6.1 11.3 0.00 0.00 0.00 45 1019.2
20260830213032 70 1 5.2 7.8 0.00 0.00 0.00 45 1019.3
20260830211535 70 335 3.5 7.8 0.00 0.00 0.00 45 1019.4
20260830210034 70 353 3.5 7.0 0.00 0.00 0.00 45 1019.4
20260830204535 70 353 3.5 9.6 0.00 0.00 0.00 46 1019.6
20260830201536 70 337 2.6 8.7 0.00 0.00 0.00 44 1019.9
20260830200036 70 317 3.5 6.1 0.00 0.00 0.00 44 1020.0
20260830194535 69 324 2.6 7.8 0.00 0.00 0.00 44 1020.1
20260830193031 68 349 2.6 7.8 0.00 0.00 0.00 45 1020.3
20260830191533 68 340 0.9 4.3 0.00 0.00 0.00 46 1020.4
20260830190033 67 6 2.6 6.1 0.00 0.00 0.00 47 1020.5
20260830184530 66 333 0.9 5.2 0.00 0.00 0.00 47 1020.7
20260830183031 66 318 1.7 5.2 0.00 0.00 0.00 49 1020.8
20260830181534 66 324 2.6 6.1 0.00 0.00 0.00 50 1020.8
20260830180144 65 345 1.7 5.2 0.00 0.00 0.00 51 1020.8
20260830174534 64 332 1.7 5.2 0.00 0.00 0.00 53 1020.8
20260830173035 59 316 1.7 5.2 0.00 0.00 0.00 60 1020.8
20260830170034 58 341 2.6 4.3 0.00 0.00 0.00 59 1021.0
20260830164533 59 41 1.7 3.5 0.00 0.00 0.00 59 1021.1
20260830163033 59 20 1.7 3.5 0.00 0.00 0.00 60 1021.3
20260830161529 59 54 1.7 3.5 0.00 0.00 0.00 60 1021.5
20260830154530 61 143 0.9 3.5 0.00 0.00 0.00 67 1021.7
20260830153032 59 157 0.9 2.6 0.00 0.00 0.00 71 1021.7
20260830151535 57 156 0.9 2.6 0.00 0.00 0.00 76 1021.7
20260830150033 54 139 2.6 5.2 0.00 0.00 0.00 79 1021.7
20260830144529 49 149 3.5 5.2 0.00 0.00 0.00 83 1021.6
20260830141535 44 144 4.3 7.8 0.00 0.00 0.00 82 1021.2
20260830140106 44 151 4.3 9.6 0.00 0.00 0.00 82 1021.1
20260830134606 44 155 3.5 7.8 0.00 0.00 0.00 82 1021.1
20260830133149 44 148 5.2 9.6 0.00 0.00 0.00 82 1021.0
20260830131530 45 142 5.2 9.6 0.00 0.00 0.00 82 1020.9
20260830130033 44 150 5.2 12.2 0.00 0.00 0.00 83 1020.9
20260830124536 44 150 5.2 10.4 0.00 0.00 0.00 83 1020.9
20260830123031 43 153 5.2 7.0 0.00 0.00 0.00 84 1020.9
20260830120031 43 155 3.5 7.0 0.00 0.00 0.00 84 1020.9
20260830113031 43 148 4.3 8.7 0.00 0.00 0.00 84 1020.9
20260830111534 42 145 2.6 6.1 0.00 0.00 0.00 84 1021.0
20260830110107 42 136 1.7 4.3 0.00 0.00 0.00 84 1021.0
20260830104531 43 136 3.5 7.0 0.00 0.00 0.00 84 1021.0
20260830103030 43 146 4.3 7.8 0.00 0.00 0.00 84 1021.0
20260830101537 43 137 4.3 6.1 0.00 0.00 0.00 84 1020.9
20260830090038 43 138 5.2 7.8 0.00 0.00 0.00 82 1021.1
20260830084536 43 149 2.6 5.2 0.00 0.00 0.00 81 1021.0
20260830083036 43 184 2.6 5.2 0.00 0.00 0.00 80 1021.1
20260830081531 44 155 1.7 5.2 0.00 0.00 0.00 77 1021.2
20260830071535 51 297 3.5 7.8 0.00 0.00 0.00 71 1020.9
20260830070035 51 304 4.3 11.3 0.00 0.00 0.00 71 1021.1
20260830064606 50 305 4.3 7.0 0.00 0.00 0.00 73 1021.1
20260830063033 50 283 2.6 7.8 0.00 0.00 0.00 74 1021.1
20260830060036 50 300 3.5 7.8 0.00 0.00 0.00 76 1021.2
20260830053031 49 5 1.7 7.0 0.00 0.00 0.00 79 1021.2
20260830051534 49 312 0.9 6.1 0.00 0.00 0.00 80 1021.2